Saint Bonnet de Bellac- Haute Vienne - France
Donnes mto: mercredi, 05/09/2012
Date Horaire Temp. E. Hum. E. P.atmo. Pluie Vent Direction Direction Ensoleilleme Solaire P. de rose Temp au vent Rafales
05/09/2012 00:00 17,3 C 71 % 1019,9 hPa 0,0 mm 0,0 km/h (0 Bft) N-NE 22 0 min 0 W/m 12,0 C 17,3 C 0,0 km/h (0 Bft)
05/09/2012 00:10 17,2 C 71 % 1019,9 hPa 0,0 mm 1,4 km/h (1 Bft) N-NO 337 0 min 0 W/m 11,9 C 17,2 C 2,9 km/h (1 Bft)
05/09/2012 00:20 17,1 C 72 % 1020,0 hPa 0,0 mm 0,0 km/h (0 Bft) N-NO 337 0 min 0 W/m 12,0 C 17,1 C 0,0 km/h (0 Bft)
05/09/2012 00:30 17,1 C 72 % 1019,8 hPa 0,0 mm 1,1 km/h (1 Bft) N 360 0 min 0 W/m 12,0 C 17,1 C 1,1 km/h (1 Bft)
05/09/2012 00:40 16,9 C 72 % 1019,8 hPa 0,0 mm 0,4 km/h (0 Bft) N-NE 22 0 min 0 W/m 11,8 C 16,9 C 0,4 km/h (0 Bft)
05/09/2012 00:50 16,8 C 73 % 1019,8 hPa 0,0 mm 0,0 km/h (0 Bft) N-NE 22 0 min 0 W/m 11,9 C 16,8 C 0,0 km/h (0 Bft)
05/09/2012 01:00 16,6 C 73 % 1019,8 hPa 0,0 mm 0,0 km/h (0 Bft) N 360 0 min 0 W/m 11,7 C 16,6 C 0,0 km/h (0 Bft)
05/09/2012 01:10 16,3 C 73 % 1019,8 hPa 0,0 mm 0,0 km/h (0 Bft) N 360 0 min 0 W/m 11,4 C 16,3 C 0,0 km/h (0 Bft)
05/09/2012 01:20 16,1 C 74 % 1019,8 hPa 0,0 mm 0,0 km/h (0 Bft) N-NO 337 0 min 0 W/m 11,5 C 16,1 C 0,0 km/h (0 Bft)
05/09/2012 01:30 15,9 C 74 % 1019,8 hPa 0,0 mm 0,0 km/h (0 Bft) N-NE 22 0 min 0 W/m 11,3 C 15,9 C 0,0 km/h (0 Bft)
05/09/2012 01:40 15,8 C 75 % 1019,9 hPa 0,0 mm 0,0 km/h (0 Bft) N-NE 22 0 min 0 W/m 11,4 C 15,8 C 0,0 km/h (0 Bft)
05/09/2012 01:50 15,6 C 76 % 1019,9 hPa 0,0 mm 0,0 km/h (0 Bft) N-NE 22 0 min 0 W/m 11,4 C 15,6 C 0,0 km/h (0 Bft)
05/09/2012 02:00 15,4 C 76 % 1019,8 hPa 0,0 mm 0,0 km/h (0 Bft) N-NE 22 0 min 0 W/m 11,2 C 15,4 C 0,0 km/h (0 Bft)
05/09/2012 02:10 15,1 C 76 % 1019,7 hPa 0,0 mm 0,0 km/h (0 Bft) N-NE 22 0 min 0 W/m 10,9 C 15,1 C 0,0 km/h (0 Bft)
05/09/2012 02:20 14,9 C 77 % 1019,6 hPa 0,0 mm 0,0 km/h (0 Bft) NO 315 0 min 0 W/m 10,9 C 14,9 C 0,0 km/h (0 Bft)
05/09/2012 02:30 14,8 C 79 % 1019,6 hPa 0,0 mm 0,0 km/h (0 Bft) NO 315 0 min 0 W/m 11,2 C 14,8 C 0,0 km/h (0 Bft)
05/09/2012 02:40 14,6 C 78 % 1019,6 hPa 0,0 mm 0,0 km/h (0 Bft) NO 315 0 min 0 W/m 10,8 C 14,6 C 0,0 km/h (0 Bft)
05/09/2012 02:50 14,4 C 79 % 1019,5 hPa 0,0 mm 0,0 km/h (0 Bft) NO 315 0 min 0 W/m 10,8 C 14,4 C 0,0 km/h (0 Bft)
05/09/2012 03:02 14,2 C 79 % 1019,5 hPa 0,0 mm 0,0 km/h (0 Bft) NO 315 0 min 0 W/m 10,6 C 14,2 C 0,0 km/h (0 Bft)
05/09/2012 03:10 13,9 C 79 % 1019,4 hPa 0,0 mm 0,0 km/h (0 Bft) NO 315 0 min 0 W/m 10,3 C 13,9 C 0,0 km/h (0 Bft)
05/09/2012 03:20 13,7 C 79 % 1019,3 hPa 0,0 mm 0,0 km/h (0 Bft) NO 315 0 min 0 W/m 10,1 C 13,7 C 0,0 km/h (0 Bft)
05/09/2012 03:30 13,5 C 80 % 1019,2 hPa 0,0 mm 0,0 km/h (0 Bft) NO 315 0 min 0 W/m 10,1 C 13,5 C 0,0 km/h (0 Bft)
05/09/2012 03:40 13,3 C 80 % 1019,3 hPa 0,0 mm 0,0 km/h (0 Bft) NO 315 0 min 0 W/m 9,9 C 13,3 C 0,0 km/h (0 Bft)
05/09/2012 03:50 13,3 C 81 % 1019,2 hPa 0,0 mm 0,0 km/h (0 Bft) N-NO 337 0 min 0 W/m 10,1 C 13,3 C 0,0 km/h (0 Bft)
05/09/2012 04:00 13,2 C 81 % 1019,2 hPa 0,0 mm 0,0 km/h (0 Bft) N-NO 337 0 min 0 W/m 10,0 C 13,2 C 0,0 km/h (0 Bft)
05/09/2012 04:10 13,1 C 82 % 1019,0 hPa 0,0 mm 0,0 km/h (0 Bft) N-NO 337 0 min 0 W/m 10,1 C 13,1 C 0,0 km/h (0 Bft)
05/09/2012 04:20 12,9 C 83 % 1019,0 hPa 0,0 mm 0,0 km/h (0 Bft) NO 315 0 min 0 W/m 10,1 C 12,9 C 0,0 km/h (0 Bft)
05/09/2012 04:30 12,9 C 83 % 1019,1 hPa 0,0 mm 0,0 km/h (0 Bft) N-NO 337 0 min 0 W/m 10,1 C 12,9 C 0,0 km/h (0 Bft)
05/09/2012 04:40 12,9 C 83 % 1019,0 hPa 0,0 mm 0,0 km/h (0 Bft) N-NO 337 0 min 0 W/m 10,1 C 12,9 C 0,0 km/h (0 Bft)
05/09/2012 04:50 12,8 C 83 % 1019,1 hPa 0,0 mm 0,0 km/h (0 Bft) N-NO 337 0 min 0 W/m 10,0 C 12,8 C 0,0 km/h (0 Bft)
05/09/2012 05:00 12,6 C 84 % 1019,1 hPa 0,0 mm 0,0 km/h (0 Bft) N-NO 337 0 min 0 W/m 10,0 C 12,6 C 0,0 km/h (0 Bft)
05/09/2012 05:10 12,4 C 84 % 1019,1 hPa 0,0 mm 0,0 km/h (0 Bft) N-NO 337 0 min 0 W/m 9,8 C 12,4 C 0,0 km/h (0 Bft)
05/09/2012 05:20 12,3 C 84 % 1019,2 hPa 0,0 mm 0,0 km/h (0 Bft) N 360 0 min 0 W/m 9,7 C 12,3 C 0,0 km/h (0 Bft)
05/09/2012 05:30 12,3 C 85 % 1019,2 hPa 0,0 mm 0,0 km/h (0 Bft) N-NO 337 0 min 0 W/m 9,9 C 12,3 C 0,0 km/h (0 Bft)
05/09/2012 05:40 12,3 C 85 % 1019,1 hPa 0,0 mm 0,0 km/h (0 Bft) N-NO 337 0 min 0 W/m 9,9 C 12,3 C 0,0 km/h (0 Bft)
05/09/2012 05:50 12,3 C 85 % 1019,1 hPa 0,0 mm 0,0 km/h (0 Bft) N-NO 337 0 min 0 W/m 9,9 C 12,3 C 0,0 km/h (0 Bft)
05/09/2012 06:00 12,3 C 85 % 1019,0 hPa 0,0 mm 0,0 km/h (0 Bft) N-NE 22 0 min 0 W/m 9,9 C 12,3 C 0,0 km/h (0 Bft)
05/09/2012 06:10 12,3 C 86 % 1019,0 hPa 0,0 mm 0,0 km/h (0 Bft) N 360 0 min 0 W/m 10,0 C 12,3 C 0,0 km/h (0 Bft)
05/09/2012 06:20 12,3 C 86 % 1019,0 hPa 0,0 mm 0,0 km/h (0 Bft) N 360 0 min 0 W/m 10,0 C 12,3 C 0,0 km/h (0 Bft)
05/09/2012 06:30 12,2 C 86 % 1019,1 hPa 0,0 mm 0,0 km/h (0 Bft) N 360 0 min 0 W/m 9,9 C 12,2 C 0,0 km/h (0 Bft)
05/09/2012 06:40 12,1 C 86 % 1019,1 hPa 0,0 mm 0,0 km/h (0 Bft) N 360 0 min 0 W/m 9,8 C 12,1 C 0,0 km/h (0 Bft)
05/09/2012 06:50 12,0 C 86 % 1019,1 hPa 0,0 mm 0,0 km/h (0 Bft) N 360 0 min 0 W/m 9,7 C 12,0 C 0,0 km/h (0 Bft)
05/09/2012 07:00 11,9 C 86 % 1019,2 hPa 0,0 mm 0,0 km/h (0 Bft) N-NO 337 0 min 0 W/m 9,6 C 11,9 C 0,0 km/h (0 Bft)
05/09/2012 07:10 11,8 C 86 % 1019,1 hPa 0,0 mm 0,0 km/h (0 Bft) N-NO 337 0 min 0 W/m 9,5 C 11,8 C 0,0 km/h (0 Bft)
05/09/2012 07:20 11,8 C 87 % 1019,2 hPa 0,0 mm 0,0 km/h (0 Bft) NO 315 0 min 0 W/m 9,7 C 11,8 C 0,0 km/h (0 Bft)
05/09/2012 07:30 11,8 C 87 % 1019,3 hPa 0,0 mm 0,0 km/h (0 Bft) NO 315 0 min 0 W/m 9,7 C 11,8 C 0,0 km/h (0 Bft)
05/09/2012 07:40 11,8 C 87 % 1019,4 hPa 0,0 mm 0,0 km/h (0 Bft) NO 315 0 min 0 W/m 9,7 C 11,8 C 0,0 km/h (0 Bft)
05/09/2012 07:50 11,8 C 88 % 1019,6 hPa 0,0 mm 0,0 km/h (0 Bft) N 360 0 min 0 W/m 9,9 C 11,8 C 0,0 km/h (0 Bft)
05/09/2012 08:00 11,8 C 88 % 1019,8 hPa 0,0 mm 0,0 km/h (0 Bft) N-NO 337 0 min 0 W/m 9,9 C 11,8 C 0,0 km/h (0 Bft)
05/09/2012 08:10 12,0 C 88 % 1019,8 hPa 0,0 mm 0,0 km/h (0 Bft) NE 45 0 min 0 W/m 10,1 C 12,0 C 0,0 km/h (0 Bft)
05/09/2012 08:20 12,1 C 88 % 1019,9 hPa 0,0 mm 0,0 km/h (0 Bft) N-NE 22 0 min 0 W/m 10,2 C 12,1 C 0,0 km/h (0 Bft)
05/09/2012 08:30 12,5 C 89 % 1020,0 hPa 0,0 mm 0,0 km/h (0 Bft) N-NE 22 0 min 0 W/m 10,7 C 12,5 C 0,0 km/h (0 Bft)
05/09/2012 08:40 12,9 C 89 % 1020,1 hPa 0,0 mm 0,0 km/h (0 Bft) N-NE 22 0 min 0 W/m 11,1 C 12,9 C 0,0 km/h (0 Bft)
05/09/2012 08:50 13,2 C 89 % 1020,1 hPa 0,0 mm 0,0 km/h (0 Bft) N-NE 22 0 min 0 W/m 11,4 C 13,2 C 0,0 km/h (0 Bft)
05/09/2012 09:00 13,6 C 89 % 1020,2 hPa 0,0 mm 0,0 km/h (0 Bft) N-NE 22 0 min 0 W/m 11,8 C 13,6 C 0,0 km/h (0 Bft)
05/09/2012 09:10 14,2 C 88 % 1020,1 hPa 0,0 mm 0,0 km/h (0 Bft) N-NE 22 0 min 0 W/m 12,2 C 14,2 C 0,0 km/h (0 Bft)
05/09/2012 09:20 15,0 C 88 % 1020,3 hPa 0,0 mm 0,0 km/h (0 Bft) N 360 0 min 0 W/m 13,0 C 15,0 C 0,0 km/h (0 Bft)
05/09/2012 09:30 15,9 C 85 % 1020,2 hPa 0,0 mm 2,2 km/h (1 Bft) N-NE 22 0 min 0 W/m 13,4 C 15,9 C 2,2 km/h (1 Bft)
05/09/2012 09:40 16,7 C 82 % 1020,4 hPa 0,0 mm 0,7 km/h (0 Bft) N 360 0 min 0 W/m 13,6 C 16,7 C 3,2 km/h (1 Bft)
05/09/2012 09:50 17,5 C 80 % 1020,4 hPa 0,0 mm 0,0 km/h (0 Bft) N-NO 337 0 min 0 W/m 14,0 C 17,5 C 0,0 km/h (0 Bft)
05/09/2012 10:00 18,3 C 77 % 1020,5 hPa 0,0 mm 0,0 km/h (0 Bft) N-NE 22 0 min 0 W/m 14,2 C 18,3 C 3,6 km/h (1 Bft)
05/09/2012 10:10 19,1 C 74 % 1020,6 hPa 0,0 mm 0,7 km/h (0 Bft) N-NE 22 0 min 0 W/m 14,4 C 19,1 C 0,7 km/h (0 Bft)
05/09/2012 10:20 19,8 C 73 % 1020,5 hPa 0,0 mm 0,7 km/h (0 Bft) NE 45 0 min 0 W/m 14,8 C 19,8 C 0,7 km/h (0 Bft)
05/09/2012 10:30 20,4 C 71 % 1020,5 hPa 0,0 mm 0,0 km/h (0 Bft) N-NE 22 0 min 0 W/m 15,0 C 20,4 C 0,0 km/h (0 Bft)
05/09/2012 10:40 21,0 C 68 % 1020,6 hPa 0,0 mm 1,4 km/h (1 Bft) N-NE 22 0 min 0 W/m 14,9 C 21,0 C 6,5 km/h (2 Bft)
05/09/2012 10:50 21,3 C 67 % 1020,7 hPa 0,0 mm 2,5 km/h (1 Bft) N-NE 22 0 min 0 W/m 14,9 C 21,3 C 3,2 km/h (1 Bft)
05/09/2012 11:00 21,3 C 67 % 1020,7 hPa 0,0 mm 0,0 km/h (0 Bft) N-NO 337 0 min 0 W/m 14,9 C 21,3 C 0,0 km/h (0 Bft)
05/09/2012 11:10 21,3 C 66 % 1020,7 hPa 0,0 mm 1,4 km/h (1 Bft) N-NE 22 0 min 0 W/m 14,7 C 21,3 C 4,0 km/h (1 Bft)
05/09/2012 11:20 21,8 C 66 % 1020,8 hPa 0,0 mm 4,3 km/h (1 Bft) NE 45 0 min 0 W/m 15,2 C 21,8 C 6,8 km/h (2 Bft)
05/09/2012 11:30 22,6 C 65 % 1020,8 hPa 0,0 mm 2,9 km/h (1 Bft) NO 315 0 min 0 W/m 15,7 C 22,6 C 6,8 km/h (2 Bft)
05/09/2012 11:40 23,3 C 63 % 1020,7 hPa 0,0 mm 2,9 km/h (1 Bft) O 270 0 min 0 W/m 15,9 C 23,3 C 7,2 km/h (2 Bft)
05/09/2012 11:50 23,9 C 61 % 1020,7 hPa 0,0 mm 3,6 km/h (1 Bft) NO 315 0 min 0 W/m 15,9 C 23,9 C 9,0 km/h (2 Bft)
05/09/2012 12:00 24,6 C 59 % 1020,7 hPa 0,0 mm 4,3 km/h (1 Bft) N-NE 22 0 min 0 W/m 16,0 C 24,6 C 6,8 km/h (2 Bft)
05/09/2012 12:10 25,2 C 59 % 1020,5 hPa 0,0 mm 0,4 km/h (0 Bft) N-NO 337 0 min 0 W/m 16,6 C 25,2 C 3,2 km/h (1 Bft)
05/09/2012 12:20 25,8 C 57 % 1020,4 hPa 0,0 mm 3,6 km/h (1 Bft) N-NE 22 0 min 0 W/m 16,6 C 25,8 C 3,6 km/h (1 Bft)
05/09/2012 12:30 26,3 C 55 % 1020,4 hPa 0,0 mm 6,8 km/h (2 Bft) N-NE 22 0 min 0 W/m 16,5 C 26,3 C 9,0 km/h (2 Bft)
05/09/2012 12:40 26,5 C 55 % 1020,5 hPa 0,0 mm 7,2 km/h (2 Bft) NE 45 0 min 0 W/m 16,7 C 26,5 C 13,7 km/h (3 Bft)
05/09/2012 12:50 26,4 C 54 % 1020,5 hPa 0,0 mm 5,8 km/h (2 Bft) NO 315 0 min 0 W/m 16,3 C 26,4 C 5,8 km/h (2 Bft)
05/09/2012 13:00 26,3 C 55 % 1020,4 hPa 0,0 mm 5,8 km/h (2 Bft) N-NO 337 0 min 0 W/m 16,5 C 26,3 C 8,6 km/h (2 Bft)
05/09/2012 13:10 26,2 C 55 % 1020,5 hPa 0,0 mm 7,6 km/h (2 Bft) N 360 0 min 0 W/m 16,4 C 26,2 C 9,7 km/h (2 Bft)
05/09/2012 13:20 26,3 C 55 % 1020,5 hPa 0,0 mm 2,5 km/h (1 Bft) E-NE 67 0 min 0 W/m 16,5 C 26,3 C 6,5 km/h (2 Bft)
05/09/2012 13:30 26,4 C 53 % 1020,4 hPa 0,0 mm 11,5 km/h (2 Bft) N-NE 22 0 min 0 W/m 16,0 C 26,4 C 14,8 km/h (3 Bft)
05/09/2012 13:40 26,4 C 53 % 1020,3 hPa 0,0 mm 9,4 km/h (2 Bft) N-NE 22 0 min 0 W/m 16,0 C 26,4 C 12,6 km/h (3 Bft)
05/09/2012 13:50 26,4 C 54 % 1020,3 hPa 0,0 mm 2,9 km/h (1 Bft) N-NE 22 0 min 0 W/m 16,3 C 26,4 C 4,3 km/h (1 Bft)
05/09/2012 14:00 26,4 C 53 % 1020,2 hPa 0,0 mm 8,6 km/h (2 Bft) N-NO 337 0 min 0 W/m 16,0 C 26,4 C 11,5 km/h (2 Bft)
05/09/2012 14:10 26,2 C 54 % 1020,2 hPa 0,0 mm 5,8 km/h (2 Bft) N-NO 337 0 min 0 W/m 16,1 C 26,2 C 15,8 km/h (3 Bft)
05/09/2012 14:20 26,0 C 55 % 1020,3 hPa 0,0 mm 6,1 km/h (2 Bft) N 360 0 min 0 W/m 16,2 C 26,0 C 11,2 km/h (2 Bft)
05/09/2012 14:30 25,8 C 54 % 1020,3 hPa 0,0 mm 4,3 km/h (1 Bft) N-NE 22 0 min 0 W/m 15,8 C 25,8 C 4,7 km/h (1 Bft)
05/09/2012 14:40 25,6 C 55 % 1020,4 hPa 0,0 mm 4,0 km/h (1 Bft) N 360 0 min 0 W/m 15,9 C 25,6 C 8,3 km/h (2 Bft)
05/09/2012 14:50 25,6 C 54 % 1020,3 hPa 0,0 mm 6,1 km/h (2 Bft) N-NE 22 0 min 0 W/m 15,6 C 25,6 C 8,3 km/h (2 Bft)
05/09/2012 15:00 25,5 C 54 % 1020,3 hPa 0,0 mm 0,4 km/h (0 Bft) N-NE 22 0 min 0 W/m 15,5 C 25,5 C 3,6 km/h (1 Bft)
05/09/2012 15:10 25,6 C 54 % 1020,1 hPa 0,0 mm 4,3 km/h (1 Bft) N-NE 22 0 min 0 W/m 15,6 C 25,6 C 7,9 km/h (2 Bft)
05/09/2012 15:20 25,8 C 54 % 1020,1 hPa 0,0 mm 2,9 km/h (1 Bft) NE 45 0 min 0 W/m 15,8 C 25,8 C 4,3 km/h (1 Bft)
05/09/2012 15:30 26,4 C 52 % 1020,1 hPa 0,0 mm 4,3 km/h (1 Bft) NE 45 0 min 0 W/m 15,7 C 26,4 C 4,3 km/h (1 Bft)
05/09/2012 15:40 26,6 C 50 % 1019,9 hPa 0,0 mm 7,6 km/h (2 Bft) NE 45 0 min 0 W/m 15,3 C 26,6 C 7,6 km/h (2 Bft)
05/09/2012 15:50 26,8 C 50 % 1019,8 hPa 0,0 mm 7,2 km/h (2 Bft) N 360 0 min 0 W/m 15,5 C 26,8 C 11,5 km/h (2 Bft)
05/09/2012 16:00 27,1 C 49 % 1019,8 hPa 0,0 mm 4,3 km/h (1 Bft) N-NO 337 0 min 0 W/m 15,4 C 27,1 C 9,4 km/h (2 Bft)
05/09/2012 16:10 26,9 C 48 % 1019,8 hPa 0,0 mm 6,1 km/h (2 Bft) N-NE 22 0 min 0 W/m 14,9 C 26,9 C 11,9 km/h (2 Bft)
05/09/2012 16:20 26,5 C 49 % 1019,9 hPa 0,0 mm 3,6 km/h (1 Bft) NO 315 0 min 0 W/m 14,9 C 26,5 C 8,3 km/h (2 Bft)
05/09/2012 16:30 26,1 C 50 % 1020,0 hPa 0,0 mm 9,4 km/h (2 Bft) N-NE 22 0 min 0 W/m 14,8 C 26,1 C 9,4 km/h (2 Bft)
05/09/2012 16:40 25,7 C 50 % 1020,0 hPa 0,0 mm 10,1 km/h (2 Bft) N-NE 22 0 min 0 W/m 14,5 C 25,7 C 17,3 km/h (3 Bft)
05/09/2012 16:50 25,4 C 51 % 1020,0 hPa 0,0 mm 2,9 km/h (1 Bft) N-NO 337 0 min 0 W/m 14,5 C 25,4 C 10,1 km/h (2 Bft)
05/09/2012 17:00 25,3 C 52 % 1020,0 hPa 0,0 mm 7,6 km/h (2 Bft) E-NE 67 0 min 0 W/m 14,7 C 25,3 C 15,5 km/h (3 Bft)
05/09/2012 17:10 25,4 C 52 % 1019,9 hPa 0,0 mm 9,4 km/h (2 Bft) N-NE 22 0 min 0 W/m 14,8 C 25,4 C 10,4 km/h (2 Bft)
05/09/2012 17:20 25,4 C 52 % 1019,8 hPa 0,0 mm 0,0 km/h (0 Bft) N 360 0 min 0 W/m 14,8 C 25,4 C 0,0 km/h (0 Bft)
05/09/2012 17:30 25,4 C 50 % 1019,8 hPa 0,0 mm 9,0 km/h (2 Bft) N-NE 22 0 min 0 W/m 14,2 C 25,4 C 15,5 km/h (3 Bft)
05/09/2012 17:40 25,5 C 51 % 1019,7 hPa 0,0 mm 4,7 km/h (1 Bft) NE 45 0 min 0 W/m 14,6 C 25,5 C 4,7 km/h (1 Bft)
05/09/2012 17:50 25,6 C 50 % 1019,8 hPa 0,0 mm 1,4 km/h (1 Bft) N-NE 22 0 min 0 W/m 14,4 C 25,6 C 3,2 km/h (1 Bft)
05/09/2012 18:00 25,9 C 50 % 1019,8 hPa 0,0 mm 4,3 km/h (1 Bft) N-NE 22 0 min 0 W/m 14,7 C 25,9 C 4,3 km/h (1 Bft)
05/09/2012 18:10 25,9 C 49 % 1019,8 hPa 0,0 mm 4,3 km/h (1 Bft) NE 45 0 min 0 W/m 14,4 C 25,9 C 9,7 km/h (2 Bft)
05/09/2012 18:20 25,9 C 49 % 1019,8 hPa 0,0 mm 8,6 km/h (2 Bft) NE 45 0 min 0 W/m 14,4 C 25,9 C 8,6 km/h (2 Bft)
05/09/2012 18:30 25,9 C 49 % 1019,8 hPa 0,0 mm 4,0 km/h (1 Bft) N-NE 22 0 min 0 W/m 14,4 C 25,9 C 6,8 km/h (2 Bft)
05/09/2012 18:40 26,0 C 50 % 1019,8 hPa 0,0 mm 4,3 km/h (1 Bft) N-NE 22 0 min 0 W/m 14,8 C 26,0 C 7,9 km/h (2 Bft)
05/09/2012 18:50 25,8 C 50 % 1019,7 hPa 0,0 mm 5,8 km/h (2 Bft) E-SE 112 0 min 0 W/m 14,6 C 25,8 C 7,6 km/h (2 Bft)
05/09/2012 19:00 25,5 C 50 % 1019,7 hPa 0,0 mm 8,3 km/h (2 Bft) NE 45 0 min 0 W/m 14,3 C 25,5 C 16,2 km/h (3 Bft)
05/09/2012 19:10 25,1 C 51 % 1019,8 hPa 0,0 mm 3,6 km/h (1 Bft) NE 45 0 min 0 W/m 14,2 C 25,1 C 7,9 km/h (2 Bft)
05/09/2012 19:20 24,7 C 52 % 1019,9 hPa 0,0 mm 1,4 km/h (1 Bft) N 360 0 min 0 W/m 14,2 C 24,7 C 3,6 km/h (1 Bft)
05/09/2012 19:30 24,5 C 53 % 1019,8 hPa 0,0 mm 0,0 km/h (0 Bft) N-NE 22 0 min 0 W/m 14,3 C 24,5 C 3,6 km/h (1 Bft)
05/09/2012 19:40 24,4 C 53 % 1019,9 hPa 0,0 mm 0,0 km/h (0 Bft) N-NE 22 0 min 0 W/m 14,2 C 24,4 C 0,0 km/h (0 Bft)
05/09/2012 19:50 24,2 C 54 % 1019,9 hPa 0,0 mm 0,0 km/h (0 Bft) N-NE 22 0 min 0 W/m 14,3 C 24,2 C 0,0 km/h (0 Bft)
05/09/2012 20:00 23,8 C 55 % 1020,0 hPa 0,0 mm 0,0 km/h (0 Bft) N-NE 22 0 min 0 W/m 14,2 C 23,8 C 0,0 km/h (0 Bft)
05/09/2012 20:10 23,3 C 56 % 1020,0 hPa 0,0 mm 0,0 km/h (0 Bft) N-NE 22 0 min 0 W/m 14,0 C 23,3 C 0,0 km/h (0 Bft)
05/09/2012 20:20 22,6 C 57 % 1020,1 hPa 0,0 mm 0,0 km/h (0 Bft) N-NE 22 0 min 0 W/m 13,6 C 22,6 C 0,0 km/h (0 Bft)
05/09/2012 20:30 22,1 C 58 % 1020,2 hPa 0,0 mm 0,0 km/h (0 Bft) N-NE 22 0 min 0 W/m 13,4 C 22,1 C 0,0 km/h (0 Bft)
05/09/2012 20:40 21,6 C 59 % 1020,2 hPa 0,0 mm 0,0 km/h (0 Bft) N-NE 22 0 min 0 W/m 13,2 C 21,6 C 0,0 km/h (0 Bft)
05/09/2012 20:50 21,1 C 60 % 1020,4 hPa 0,0 mm 0,0 km/h (0 Bft) N-NE 22 0 min 0 W/m 13,0 C 21,1 C 0,0 km/h (0 Bft)
05/09/2012 21:00 20,6 C 62 % 1020,6 hPa 0,0 mm 0,0 km/h (0 Bft) N-NE 22 0 min 0 W/m 13,1 C 20,6 C 0,0 km/h (0 Bft)
05/09/2012 21:10 20,3 C 63 % 1020,7 hPa 0,0 mm 0,0 km/h (0 Bft) N-NE 22 0 min 0 W/m 13,0 C 20,3 C 0,0 km/h (0 Bft)
05/09/2012 21:20 19,9 C 65 % 1020,8 hPa 0,0 mm 0,0 km/h (0 Bft) N-NE 22 0 min 0 W/m 13,1 C 19,9 C 0,0 km/h (0 Bft)
05/09/2012 21:30 19,6 C 65 % 1020,9 hPa 0,0 mm 1,1 km/h (1 Bft) N-NE 22 0 min 0 W/m 12,8 C 19,6 C 3,6 km/h (1 Bft)
05/09/2012 21:40 19,4 C 66 % 1021,0 hPa 0,0 mm 0,0 km/h (0 Bft) N-NE 22 0 min 0 W/m 12,9 C 19,4 C 0,0 km/h (0 Bft)
05/09/2012 21:50 19,4 C 67 % 1021,0 hPa 0,0 mm 0,4 km/h (0 Bft) N-NE 22 0 min 0 W/m 13,1 C 19,4 C 4,0 km/h (1 Bft)
05/09/2012 22:00 19,2 C 67 % 1021,2 hPa 0,0 mm 0,4 km/h (0 Bft) N-NE 22 0 min 0 W/m 12,9 C 19,2 C 3,2 km/h (1 Bft)
05/09/2012 22:10 19,2 C 68 % 1021,2 hPa 0,0 mm 0,7 km/h (0 Bft) N-NE 22 0 min 0 W/m 13,1 C 19,2 C 3,6 km/h (1 Bft)
05/09/2012 22:20 19,1 C 68 % 1021,3 hPa 0,0 mm 0,7 km/h (0 Bft) N-NE 22 0 min 0 W/m 13,1 C 19,1 C 2,9 km/h (1 Bft)
05/09/2012 22:30 19,0 C 68 % 1021,4 hPa 0,0 mm 0,7 km/h (0 Bft) N-NE 22 0 min 0 W/m 13,0 C 19,0 C 3,6 km/h (1 Bft)
05/09/2012 22:40 18,9 C 69 % 1021,5 hPa 0,0 mm 4,7 km/h (1 Bft) N-NE 22 0 min 0 W/m 13,1 C 18,9 C 9,7 km/h (2 Bft)
05/09/2012 22:50 18,9 C 69 % 1021,5 hPa 0,0 mm 1,1 km/h (1 Bft) N-NE 22 0 min 0 W/m 13,1 C 18,9 C 1,1 km/h (1 Bft)
05/09/2012 23:00 18,8 C 69 % 1021,6 hPa 0,0 mm 1,8 km/h (1 Bft) N-NE 22 0 min 0 W/m 13,0 C 18,8 C 4,0 km/h (1 Bft)
05/09/2012 23:10 18,8 C 69 % 1021,6 hPa 0,0 mm 2,9 km/h (1 Bft) N-NE 22 0 min 0 W/m 13,0 C 18,8 C 4,3 km/h (1 Bft)
05/09/2012 23:20 18,6 C 69 % 1021,6 hPa 0,0 mm 4,0 km/h (1 Bft) E-NE 67 0 min 0 W/m 12,8 C 18,6 C 9,0 km/h (2 Bft)
05/09/2012 23:30 18,5 C 70 % 1021,6 hPa 0,0 mm 1,4 km/h (1 Bft) NE 45 0 min 0 W/m 12,9 C 18,5 C 4,3 km/h (1 Bft)
05/09/2012 23:40 18,4 C 70 % 1021,7 hPa 0,0 mm 3,6 km/h (1 Bft) N-NE 22 0 min 0 W/m 12,8 C 18,4 C 3,6 km/h (1 Bft)
05/09/2012 23:50 18,3 C 71 % 1021,8 hPa 0,0 mm 1,8 km/h (1 Bft) N-NE 22 0 min 0 W/m 12,9 C 18,3 C 1,8 km/h (1 Bft)
_ Min-Heure 08:00 16:10 06:20 - 21:40 - - - - 07:10 08:00 21:40
Minimum _ 11,8 C 48 % 1019,0 hPa - 0,0 km/h (0 Bft) - - - - 9,5 C 11,8 C 0,0 km/h (0 Bft)
_ Max-Heure 16:00 09:00 23:50 23:50 13:30 - - 23:50 23:50 12:40 16:00 16:40
Maximum _ 27,1 C 89 % 1021,8 hPa 0,0 mm 11,5 km/h
N-NE (2 Bft)
- - 0 min 0 W/m 16,7 C 27,1 C 17,3 km/h
N-NE (3 Bft)
Moyenne _ 19,5 C 68 % 1020,1 hPa #0,0 mm 2,1 km/h (1 Bft) N-NE - #0 min. 0 W/m 13,0 C 19,5 C 3,5 km/h (1 Bft)
Saint Bonnet de Bellac- Haute Vienne - France